Location: Borea
(45.6167°N, 23.0167°E)
Time: 20:53:47
(UTC+00:00)

Genesis I - Pass Details

Date: 03 February 2023
Orbit: 466 x 516 km, 64.5° (Epoch: 22 March)

Event Time Altitude Azimuth Distance (km) Brightness Sun altitude
Rises 17:14:41 0° 210° (SSW) 2,635 7.3 -17.4°
Reaches altitude 10° 17:16:51 10° 208° (SSW) 1,756 6.3 -17.7°
Maximum altitude 17:20:47 73° 125° (SE) 552 3.1 -18.4°
Enters shadow 17:21:59 43° 51° (NE) 751 3.6 -18.6°
